TITAN 3C TRANSTAGE DEB, 62724

Orbit data source: Space-Track

TITAN 3C TRANSTAGE DEB, 62724 is space debris in GEO originally from a launch on Thu, 26 Sep 1968 UTC launched from the Air Force Eastern Test Range (AFETR). Debris objects in space refer to the collection of defunct objects orbiting the Earth. Examples of debris include non-operational satellites, rocket bodies, and fragments generated from explosions, collisions, or faulty payload assembly.

Not visible in the next 10 days
Identifier
62724, 1968-081AS
Orbit
GEO
Country
Flag of USUS
Related business
Manufacturer
Unknown
Mission
Spacecraft
Bus & Motor
Unknown
Mass
Unknown
Launch date (UTC)
1968-09-26 (57 years ago)
Launch vehicle
Unknown
Launch site
Air Force Eastern Test Range (AFETR)
Object type
Payload
Rocket body
Debris
Shape & HBR
Unknown shape, 1.1 m
Radar Cross Section
RCS unknown

Expand to show TLE details & history
Last TLE update: 8 months ago

TLE from 8 months ago
0 TITAN 3C TRANSTAGE DEB
1 62724U 68081AS  25058.34013748 -.00000136  00000-0  00000-0 0  9995
2 62724   4.6543  35.9399 1129064 297.9914  51.2321  0.98137048  7525
Epoch: 2025-02-27T08:09Z
TLE epoch observation values (Epoch: 2025-02-27T08:09:47.878Z)
Latitude
-0.00001°
Longitude
116.37169°
Altitude
33,726.701 km
Speed
3.25 km/s
True Right ascension
02h 24m 57s
True Declination
0° 00' 00"
Sunlit
Object was in daylight at epoch
Visualization orbit readout
Latitude
Unknown
Longitude
Unknown
Altitude
Unknown
Speed
Unknown
Apparent Right ascension
Unknown
Apparent Declination
Unknown
Sunlit
N/A
Visualization observer readout
Local Sidereal Time
13:34:12
Azimuth
Unknown
Elevation
Unknown
Doppler factor
Unknown
Orbital elements
Apogee altitude
41,226.505 km
Perigee altitude
31,567.348 km
Semi-major axis
42,775.064 km
Eccentricity
0.11291
Inclination
4.6543°
RAAN
35.9399°
Arg. of periapsis
297.9914°
True anomaly
62.22495°
Mean anomaly
51.2321°
Eccentric anomaly
56.63495°
Mean motion
0.24533 °/min
Orbital period
1,467.39 mins
BSTAR
0
Loading maneuver chart data...
Computing Atmospheric mass density...

Documentation

Showing up to 5 results
|